Probability
0 0 0 0 0 0 0 0 0 0 0 3 6 10 19 19 16 16 13 13 23 19 16 16 19 19 19 23 26 26 32 32 32 29 26 29 29 26 19 10 13 6 3 3
0 0 0 0 3 0 0 0 0 0 0 6 6 10 16 13 16 19 19 19 19 19 19 16 19 19 19 19 23 23 23 26 32 29 32 32 29 29 16 10 6 6 3 3
0 0 0 0 0 3 3 3 0 0 6 3 3 6 10 19 19 23 23 19 19 19 19 16 16 19 19 19 23 19 19 23 23 32 29 32 35 23 19 13 3 6 3 3
0 0 0 0 0 0 3 0 0 6 6 6 6 6 10 10 16 23 23 23 19 19 16 16 16 19 19 13 16 19 19 19 23 23 29 26 26 29 16 16 13 3 3 3
0 0 0 0 0 3 0 0 3 3 0 0 6 6 10 10 13 16 19 19 16 16 13 13 13 3 10 16 16 19 19 19 19 16 19 26 26 26 19 13 10 10 6 3
0 0 0 0 0 0 0 0 0 0 0 3 3 3 3 10 10 6 6 10 13 13 16 16 13 10 10 6 16 16 13 13 10 10 10 19 23 19 16 16 16 13 6 3
0 0 0 0 0 0 0 0 0 0 3 3 3 3 3 10 10 6 6 10 10 10 10 13 6 6 6 3 3 13 13 13 13 10 10 16 19 16 13 13 16 13 10 6
0 0 0 0 0 0 0 0 0 0 3 3 3 3 3 6 6 6 6 6 10 10 10 10 3 3 3 3 6 10 10 13 13 13 19 19 13 13 10 13 13 13 10 10
0 0 0 0 0 0 0 0 0 0 0 3 3 3 3 3 3 6 6 6 6 10 10 10 6 6 6 3 6 10 10 10 10 16 16 13 13 13 10 10 13 16 13 10
0 0 0 0 0 0 0 0 0 0 0 0 3 3 3 3 3 3 3 3 6 6 6 6 0 6 6 6 6 6 10 6 6 10 13 13 10 10 10 13 10 10 13 10
0 0 0 0 0 0 0 0 0 0 0 0 3 3 3 3 3 3 3 6 6 6 6 6 3 6 6 3 3 3 3 6 6 6 6 10 3 0 10 3 3 6 10 10
0 0 0 0 0 0 0 0 0 0 0 3 3 3 3 3 3 3 6 6 6 6 6 3 3 3 3 3 3 0 0 3 6 6 3 3 0 0 3 3 3 3 3 3
0 0 0 0 0 0 0 0 0 0 3 6 6 6 6 6 6 6 6 6 6 6 3 3 3 0 3 3 3 0 0 0 0 6 3 0 3 3 3 0 0 0 0 0
0 0 0 0 0 0 0 0 0 3 3 6 6 6 6 3 3 6 6 6 3 3 3 3 3 3 0 0 0 0 0 0 0 0 3 0 3 3 3 3 0 0 0 0
0 0 0 0 0 0 0 0 0 3 3 3 3 3 3 3 3 3 3 3 3 3 3 3 3 0 0 0 0 0 0 0 0 3 3 3 3 3 3 3 0 0 0 0
0 0 0 0 0 0 0 0 0 0 3 3 3 3 3 3 3 3 3 3 3 3 0 0 0 0 0 0 0 0 0 0 0 0 3 3 3 3 3 0 0 0 0 0
0 0 0 0 0 0 0 0 0 0 0 0 0 0 0 0 0 0 0 0 0 0 0 0 0 0 0 0 0 0 0 0 0 0 3 3 3 3 3 0 0 0 0 0
0 0 0 0 0 0 0 0 0 0 0 0 0 0 0 0 0 0 0 0 0 0 0 0 0 0 0 0 0 0 0 0 0 3 3 3 3 3 3 0 0 0 0 0
0 0 0 0 0 0 0 0 0 0 0 0 0 0 0 0 0 0 0 0 0 0 0 0 0 0 0 0 0 0 0 0 0 3 3 3 0 3 0 0 0 0 0 0
0 0 0 0 0 0 0 0 0 0 0 0 0 0 0 0 0 0 0 0 0 0 0 0 0 0 0 0 0 0 0 3 3 0 0 0 0 0 0 0 0 0 0 0
0 0 0 0 0 0 0 0 0 0 0 0 0 0 0 0 0 0 0 0 0 0 0 0 0 0 0 0 0 0 0 0 0 0 0 0 0 0 0 0 0 0 0 0
0 0 0 0 0 0 0 0 0 0 0 0 0 0 0 0 0 0 0 0 0 0 0 0 0 0 0 0 0 0 0 0 0 0 0 0 0 0 0 0 0 0 0 0
0 0 0 0 0 0 0 0 0 0 0 0 0 0 0 0 0 0 0 0 0 0 0 0 0 0 0 0 0 0 0 0 0 0 0 0 0 0 0 0 0 0 0 0
0 3 0 0 0 0 0 0 0 0 0 0 0 0 0 0 0 0 0 0 0 0 0 0 0 0 0 0 0 0 0 0 0 0 0 0 0 0 0 0 0 0 0 0
0 0 0 0 0 0 0 0 0 0 0 0 0 0 0 0 0 0 0 0 0 0 0 0 0 0 0 0 0 0 0 0 0 0 0 0 0 0 0 0 0 0 0 0
0 0 0 0 0 0 0 0 0 0 0 0 0 0 0 0 0 0 0 0 0 0 0 0 0 0 0 0 0 0 0 0 0 0 0 0 0 0 0 0 0 0 0 0
0 0 0 0 0 0 0 0 0 0 0 0 0 0 0 0 0 0 0 0 0 0 0 0 0 0 0 0 0 0 0 0 0 0 0 0 0 0 0 0 0 0 0 0
Height
5813 5813 5814 5815 5816 5817 5817 5817 5818 5818 5818 5818 5818 5818 5818 5818 5819 5818 5817 5817 5816 5816 5816 5815 5815 5815 5813 5812 5811 5810 5810 5809 5809 5809 5809 5808 5808 5807 5806 5806 5806 5805 5805 5804
5807 5808 5808 5809 5810 5810 5810 5810 5811 5811 5812 5812 5811 5811 5811 5812 5812 5811 5810 5810 5810 5810 5809 5808 5808 5807 5806 5805 5804 5802 5801 5801 5801 5801 5801 5800 5800 5799 5799 5799 5798 5798 5798 5797
5802 5802 5803 5803 5803 5803 5803 5803 5804 5804 5806 5805 5805 5805 5804 5805 5805 5805 5804 5803 5803 5802 5802 5801 5800 5799 5798 5797 5796 5795 5794 5794 5794 5794 5793 5793 5792 5792 5791 5791 5790 5790 5789 5789
5796 5797 5796 5799 5796 5796 5797 5797 5798 5798 5798 5798 5798 5798 5798 5798 5797 5797 5796 5795 5795 5794 5793 5792 5792 5791 5790 5789 5788 5788 5787 5786 5786 5785 5785 5785 5784 5784 5783 5783 5782 5782 5782 5781
5789 5789 5790 5791 5791 5790 5791 5791 5791 5791 5791 5791 5792 5792 5791 5790 5790 5789 5789 5788 5787 5786 5786 5784 5783 5783 5782 5781 5780 5779 5779 5778 5778 5777 5777 5776 5776 5776 5775 5775 5774 5774 5773 5773
5783 5783 5783 5785 5785 5784 5786 5785 5785 5785 5785 5784 5784 5784 5784 5783 5782 5782 5781 5780 5779 5778 5777 5777 5776 5775 5774 5773 5772 5772 5770 5769 5769 5769 5768 5768 5767 5767 5766 5766 5766 5765 5765 5764
5777 5776 5776 5778 5779 5779 5780 5780 5779 5778 5778 5778 5777 5777 5776 5775 5775 5774 5773 5772 5771 5770 5769 5769 5768 5767 5766 5765 5764 5763 5762 5761 5760 5760 5759 5759 5758 5758 5758 5757 5757 5756 5756 5755
5770 5771 5773 5772 5772 5773 5773 5772 5771 5771 5770 5770 5770 5769 5768 5768 5767 5766 5765 5764 5763 5762 5761 5760 5760 5759 5758 5757 5756 5755 5754 5752 5751 5751 5751 5750 5749 5749 5749 5748 5748 5747 5747 5747
5765 5766 5766 5765 5766 5766 5765 5765 5764 5763 5763 5763 5762 5762 5761 5761 5759 5758 5758 5757 5756 5755 5753 5752 5752 5751 5750 5749 5748 5747 5745 5744 5744 5743 5742 5741 5740 5740 5740 5740 5739 5739 5738 5738
5757 5758 5758 5759 5759 5758 5758 5757 5757 5756 5756 5756 5755 5754 5754 5753 5751 5750 5750 5749 5748 5747 5746 5744 5743 5743 5742 5741 5740 5740 5739 5737 5736 5735 5733 5732 5731 5731 5730 5731 5730 5730 5730 5730
5750 5751 5751 5751 5752 5752 5751 5751 5750 5749 5749 5748 5747 5746 5746 5745 5743 5742 5742 5741 5740 5739 5738 5737 5736 5735 5734 5733 5732 5731 5730 5729 5728 5726 5725 5723 5722 5722 5721 5721 5721 5721 5722 5721
5743 5744 5744 5745 5745 5745 5745 5744 5744 5743 5742 5741 5740 5739 5738 5736 5735 5734 5733 5733 5732 5731 5730 5729 5728 5727 5726 5725 5724 5723 5722 5721 5719 5717 5715 5714 5713 5713 5712 5712 5712 5713 5713 5713
5736 5736 5737 5737 5737 5737 5737 5737 5737 5736 5735 5734 5733 5732 5730 5729 5727 5726 5726 5725 5724 5723 5722 5720 5719 5719 5718 5717 5715 5714 5713 5712 5710 5708 5707 5706 5705 5704 5704 5704 5704 5704 5705 5705
5729 5729 5729 5729 5730 5730 5730 5730 5729 5729 5729 5728 5726 5725 5724 5722 5720 5719 5718 5717 5716 5715 5714 5713 5712 5710 5709 5708 5707 5705 5704 5702 5701 5700 5699 5698 5697 5696 5696 5697 5697 5697 5697 5697
5722 5722 5722 5722 5722 5722 5722 5722 5722 5722 5721 5721 5719 5718 5716 5715 5713 5712 5711 5709 5708 5707 5706 5705 5704 5703 5701 5700 5698 5697 5696 5694 5693 5691 5691 5690 5689 5689 5689 5689 5690 5690 5691 5691
5715 5715 5715 5715 5715 5715 5715 5715 5715 5715 5714 5713 5712 5711 5709 5708 5706 5705 5703 5702 5701 5700 5699 5698 5696 5695 5693 5692 5690 5689 5687 5686 5684 5683 5683 5683 5682 5682 5682 5682 5683 5684 5684 5684
5709 5709 5709 5709 5709 5709 5708 5708 5708 5708 5707 5706 5705 5703 5702 5701 5699 5698 5696 5695 5694 5692 5691 5690 5689 5687 5686 5685 5683 5681 5680 5679 5677 5677 5676 5676 5675 5675 5675 5676 5677 5677 5678 5678
5703 5703 5702 5702 5702 5702 5702 5701 5701 5701 5700 5699 5697 5696 5695 5694 5693 5691 5690 5689 5687 5686 5684 5683 5682 5680 5679 5677 5676 5674 5673 5672 5671 5670 5670 5669 5668 5669 5669 5669 5669 5670 5671 5671
5696 5696 5696 5696 5696 5695 5695 5695 5694 5694 5693 5692 5691 5689 5688 5687 5686 5685 5684 5683 5681 5680 5678 5677 5675 5674 5672 5671 5669 5668 5667 5666 5665 5664 5663 5663 5662 5662 5662 5663 5663 5663 5664 5664
5691 5691 5690 5690 5690 5690 5689 5688 5688 5688 5687 5686 5685 5684 5682 5681 5680 5679 5678 5677 5676 5674 5672 5671 5669 5668 5666 5665 5663 5662 5662 5661 5660 5659 5658 5658 5657 5657 5657 5657 5657 5657 5657 5657
5685 5685 5685 5685 5685 5684 5683 5683 5682 5682 5681 5680 5679 5678 5676 5675 5674 5673 5672 5671 5670 5668 5666 5665 5664 5662 5661 5660 5658 5657 5657 5656 5655 5655 5654 5653 5653 5652 5652 5651 5651 5651 5651 5651
5680 5680 5680 5680 5680 5679 5679 5678 5677 5676 5675 5674 5673 5672 5671 5670 5668 5667 5666 5665 5664 5662 5661 5659 5658 5657 5656 5655 5654 5653 5652 5651 5650 5649 5649 5648 5647 5647 5646 5646 5646 5646 5645 5645
5674 5675 5675 5675 5675 5674 5674 5673 5672 5671 5670 5669 5668 5667 5665 5664 5663 5662 5661 5660 5658 5657 5656 5654 5653 5652 5651 5650 5649 5648 5647 5647 5646 5645 5644 5643 5642 5641 5641 5640 5640 5640 5639 5639
5670 5670 5670 5670 5670 5670 5669 5668 5667 5666 5665 5664 5662 5661 5660 5659 5658 5657 5655 5654 5653 5652 5651 5649 5648 5647 5646 5646 5645 5644 5643 5642 5641 5640 5639 5638 5637 5636 5636 5635 5635 5635 5634 5633
5666 5666 5666 5666 5666 5665 5664 5663 5662 5661 5660 5659 5657 5656 5655 5653 5652 5651 5650 5649 5648 5646 5645 5644 5643 5642 5642 5641 5640 5639 5638 5638 5636 5635 5635 5634 5633 5632 5631 5631 5630 5629 5628 5627
5662 5662 5662 5662 5661 5661 5660 5659 5658 5657 5655 5654 5653 5651 5650 5648 5647 5646 5645 5644 5643 5642 5641 5640 5639 5638 5637 5636 5635 5634 5633 5633 5632 5631 5630 5629 5628 5627 5626 5625 5625 5624 5623 5622
5659 5658 5658 5658 5657 5656 5655 5654 5653 5652 5651 5650 5648 5647 5645 5643 5642 5641 5640 5639 5637 5636 5636 5634 5633 5632 5631 5630 5630 5629 5628 5627 5627 5626 5625 5625 5624 5623 5621 5620 5620 5618 5617 5616
Wind_Speed
23 24 24 24 24 25 25 26 27 26 26 25 25 26 25 26 25 25 24 24 24 24 25 25 25 26 25 26 25 24 24 23 23 23 23 23 23 23 23 23 23 23 23 23
22 23 23 23 24 25 27 27 27 27 27 27 27 27 26 26 27 25 25 25 26 26 26 26 27 26 26 26 25 25 24 25 25 24 24 24 23 23 23 23 24 24 24 24
21 22 23 23 23 25 25 26 27 28 27 27 27 28 27 27 27 27 26 26 27 27 28 28 28 27 27 26 26 25 24 25 25 26 25 25 25 25 24 25 25 25 25 25
21 22 23 22 23 23 24 25 26 27 26 26 27 26 27 27 26 26 27 27 27 27 28 28 28 27 27 26 26 26 26 25 25 26 25 25 25 25 25 25 25 25 26 26
21 22 22 21 21 23 23 24 25 26 26 27 27 27 27 27 26 26 27 28 28 28 29 28 28 27 26 26 26 26 26 27 27 27 27 26 25 25 26 26 26 27 27 27
22 22 22 21 21 22 23 25 25 26 26 26 26 26 27 27 27 27 27 28 28 28 28 28 28 28 28 27 26 27 27 26 26 27 27 27 27 26 26 27 27 27 27 27
22 22 22 20 19 20 22 23 24 25 25 25 25 25 25 26 27 27 27 27 27 27 27 27 27 27 27 26 26 27 27 27 26 27 28 28 28 27 27 27 26 26 27 27
22 22 21 21 20 21 22 22 23 24 24 24 24 24 25 25 26 26 25 25 26 27 26 26 26 26 27 26 26 27 27 27 26 26 28 29 29 28 27 27 26 26 26 26
22 22 22 22 22 22 22 22 22 23 23 24 24 24 25 25 25 25 26 26 27 27 27 26 25 25 25 24 25 25 25 25 25 26 27 28 29 29 27 27 27 26 26 26
22 21 22 22 22 21 21 21 22 23 24 24 24 25 26 26 26 26 27 27 26 27 27 26 25 25 24 24 24 25 26 25 26 26 27 28 28 28 28 28 27 27 26 26
24 23 23 23 23 22 22 22 22 22 23 23 23 24 25 26 26 26 26 26 25 26 26 26 25 25 25 25 26 26 26 27 27 28 29 29 29 28 27 28 28 28 27 26
24 24 24 23 23 22 22 22 21 21 22 22 23 23 24 25 25 25 25 25 25 25 26 26 26 26 26 27 26 27 27 27 27 27 27 27 27 27 27 26 27 27 26 25
23 24 24 24 24 23 22 22 22 21 21 21 21 22 23 24 25 25 25 25 26 26 26 26 26 26 26 26 27 27 27 28 27 27 27 26 26 26 25 24 24 24 23 23
23 23 24 24 23 23 23 23 23 22 22 22 21 22 22 23 24 24 24 24 24 24 24 24 25 25 25 26 27 27 27 27 26 26 25 25 24 24 23 22 22 22 22 22
22 22 23 23 23 22 22 23 23 23 22 22 21 22 23 23 23 23 23 23 23 23 23 24 25 24 24 25 25 26 26 25 25 25 24 23 23 22 22 21 21 21 21 21
20 21 21 21 21 22 22 22 22 22 21 22 22 23 23 23 23 22 22 22 22 23 23 24 24 24 24 24 24 25 25 24 23 23 22 22 22 21 20 20 20 20 19 19
19 19 20 20 20 20 21 21 22 22 21 22 22 22 22 22 21 21 21 21 21 22 22 23 23 23 23 23 23 23 22 22 20 20 20 21 22 21 21 20 20 19 19 18
18 18 18 18 20 20 20 20 21 21 22 23 22 21 20 19 19 19 19 19 19 20 20 20 21 22 21 21 22 22 20 20 20 19 19 19 20 21 21 20 19 19 20 20
17 18 18 18 18 19 19 19 19 20 20 21 21 20 20 19 18 18 19 19 19 19 20 19 19 20 20 20 20 19 19 19 18 17 16 16 17 18 18 18 18 19 19 19
17 17 17 17 17 17 17 18 18 18 19 19 19 19 19 18 18 18 19 19 19 19 19 19 18 18 18 18 18 17 16 16 15 14 14 15 15 15 15 15 15 15 16 17
16 16 16 15 15 15 15 15 16 17 17 18 18 17 18 18 19 19 19 19 19 19 19 18 17 17 16 16 16 15 15 14 15 15 14 14 14 15 15 15 15 15 16 17
15 15 14 14 14 14 14 14 15 15 16 17 17 18 18 18 18 18 18 18 18 17 17 17 16 16 16 15 14 14 14 14 15 15 14 14 14 14 15 15 15 15 16 16
14 14 14 14 14 15 15 14 14 15 16 16 17 17 17 17 16 16 16 16 16 16 15 15 15 15 14 14 14 14 15 15 14 14 14 14 14 13 14 14 14 14 14 15
13 13 13 13 13 14 14 14 14 15 15 16 16 15 15 15 16 15 15 15 15 15 15 14 14 14 14 14 14 13 14 14 14 14 14 13 13 13 13 13 13 13 13 14
11 12 12 12 13 13 13 13 14 15 15 15 15 15 15 16 16 15 15 15 15 14 14 14 14 15 15 15 15 14 13 13 14 14 14 13 13 13 14 14 14 14 14 14
11 11 11 12 12 13 13 14 14 14 14 14 14 14 15 15 16 16 15 15 15 15 15 15 15 15 15 15 14 14 14 14 15 14 14 13 13 13 13 13 13 14 14 14
11 11 12 12 13 14 14 14 14 14 14 13 13 13 14 15 15 15 15 15 15 15 15 15 15 15 15 14 14 14 14 14 14 14 13 13 13 13 13 13 14 14 14 14
Wind_Direction
249 249 250 251 250 250 251 253 255 258 261 261 262 263 265 268 270 272 275 275 276 278 278 277 278 280 279 277 279 279 276 273 271 270 271 272 272 272 273 274 274 275 276 277
248 250 251 255 254 254 255 255 256 259 260 262 263 264 267 269 271 274 277 279 278 279 280 280 281 282 281 278 278 279 277 272 270 269 270 271 271 272 272 272 272 273 275 276
249 251 253 254 255 254 255 254 256 259 261 262 264 266 268 270 271 272 275 278 280 280 280 280 279 279 280 280 280 277 274 272 271 270 270 270 271 271 270 272 271 272 274 274
254 255 257 258 254 253 254 255 257 258 262 263 266 267 270 272 272 272 274 276 278 280 280 279 278 279 279 280 280 278 275 272 271 270 269 270 271 272 273 272 270 272 274 274
258 258 259 257 255 254 253 254 259 262 266 269 270 270 272 273 273 273 273 274 275 277 279 278 279 281 280 279 281 281 279 274 269 268 268 269 269 270 272 273 273 273 274 276
260 261 258 258 254 256 255 256 260 264 268 272 270 269 271 273 274 275 273 275 277 278 279 277 279 280 279 278 279 280 279 274 269 269 268 267 269 269 271 274 274 274 274 278
261 263 264 264 262 263 260 262 263 266 267 271 270 271 272 274 276 277 276 276 276 277 277 277 278 279 280 279 279 281 279 275 273 271 269 268 268 271 272 273 273 274 274 276
262 263 264 266 269 270 269 268 268 269 269 269 270 272 276 278 278 278 279 277 276 277 277 278 278 279 279 280 281 282 282 278 276 274 270 270 269 270 271 273 273 274 273 275
265 265 266 268 271 273 269 269 271 273 273 274 274 274 276 280 280 279 278 278 277 278 278 279 279 279 279 280 282 284 285 281 280 278 274 272 272 269 269 271 272 273 273 275
266 265 268 270 272 273 272 272 272 273 275 277 276 275 276 278 280 279 279 279 278 277 278 278 279 281 281 282 282 283 283 281 279 278 278 274 273 271 268 268 269 272 272 273
266 266 267 268 271 273 274 277 277 276 276 276 276 277 276 276 280 280 279 280 278 278 279 278 278 279 281 282 282 282 281 280 279 279 278 277 275 272 269 268 268 269 270 270
266 267 268 268 270 273 273 275 277 277 276 279 279 279 280 281 282 282 281 280 279 279 279 279 278 278 279 280 281 281 281 281 281 281 280 277 275 273 269 268 267 267 268 269
268 269 271 272 272 273 274 274 277 279 279 280 282 284 285 284 283 283 282 281 280 280 280 281 281 279 279 281 281 282 281 281 280 279 279 277 275 274 269 268 266 263 265 269
268 269 271 273 273 273 275 275 276 277 279 281 283 284 286 287 285 284 283 282 281 281 283 286 287 286 283 282 282 282 282 282 280 279 278 278 276 273 270 267 266 264 265 267
265 268 271 274 273 272 274 275 275 276 279 281 282 284 286 286 286 285 282 281 282 282 283 286 288 287 285 284 283 283 283 282 280 279 277 276 274 270 267 267 266 264 264 264
268 270 271 272 271 271 273 274 275 276 278 279 281 283 285 286 287 286 285 283 282 282 282 285 287 288 288 287 287 286 285 283 280 278 275 273 274 269 265 264 265 265 263 263
270 272 272 272 272 273 273 272 274 276 277 279 281 282 283 284 286 286 288 287 287 285 285 286 287 288 287 287 288 287 285 283 280 278 277 274 271 268 266 264 264 264 263 264
269 271 274 276 276 275 274 273 274 276 276 279 282 281 280 283 286 287 289 289 288 289 289 288 288 288 287 287 288 286 284 283 282 278 276 272 269 265 265 263 261 261 263 264
269 271 275 278 279 278 277 278 279 280 281 282 283 283 283 284 285 286 287 289 290 290 289 289 291 291 289 288 288 285 284 286 284 278 274 272 268 264 263 263 262 262 263 264
271 273 275 278 280 282 282 280 279 280 281 283 285 287 287 286 288 287 287 289 289 291 292 292 292 293 292 290 289 289 286 286 283 279 275 273 272 268 265 265 265 268 269 268
272 274 275 277 278 279 281 281 282 283 283 285 289 292 292 290 289 288 287 288 289 290 291 292 291 292 294 293 291 289 287 287 286 283 280 278 276 272 269 268 269 270 270 270
270 272 273 274 277 278 281 283 284 285 287 290 291 290 291 290 290 289 287 288 289 289 291 294 295 293 291 291 290 287 287 287 285 282 283 281 279 279 277 274 272 273 275 275
270 271 271 272 276 278 282 286 287 286 289 292 293 290 290 289 289 289 287 288 289 289 290 291 293 292 290 288 287 285 286 287 286 284 284 285 282 280 278 274 273 277 282 282
272 274 274 273 276 279 284 288 290 291 294 296 293 290 288 287 287 287 287 288 288 287 288 288 288 289 289 287 286 285 287 287 287 286 285 284 283 282 278 275 275 277 280 281
272 272 274 276 279 284 287 289 291 294 296 296 293 290 288 288 288 286 285 285 285 285 286 287 286 288 290 288 287 285 286 287 287 286 284 281 282 282 279 278 280 281 283 281
274 276 277 278 281 285 289 292 293 294 295 295 293 292 291 290 290 288 286 286 286 286 286 286 287 289 290 288 284 284 284 284 284 284 284 282 281 282 282 283 283 283 282 281
274 277 279 279 282 286 289 291 291 292 293 293 293 294 294 293 292 291 291 291 289 287 287 288 288 289 289 285 281 279 282 283 281 279 280 278 279 283 287 286 284 287 287 282